Location: Izdebno
(52.6670°N, 16.2170°E)
Time: 10:56:54
(UTC+01:00)

Transit 2A - Pass Details

Date: 06 February 2023
Orbit: 591 x 964 km, 66.7° (Epoch: 21 March)

Event Time Altitude Azimuth Distance (km) Brightness Sun altitude
Rises 22:36:58 0° 316° (NW) 3,386 10.0 -48.6°
Enters shadow 22:39:17 - 325° (NW) 2,606 9.3 -48.8°
Reaches altitude 10° 22:39:36 10° 326° (NW) 2,508 - -48.8°
Maximum altitude 22:44:54 34° 30° (NNE) 1,473 - -49.3°
Drops below altitude 10° 22:50:31 10° 94° (E) 2,670 - -49.7°
Sets 22:53:23 0° 104° (ESE) 3,636 - -49.9°
